This demonstration page uses our WeatherBlox Daily Observations layout. Learn more.

Left ArrowRight Arrow

Hourly Observations for April 10, 2020

Temp ( °F °C ) Dew Point ( °F °C ) Humidity (%) Winds ( mph kmh ) Pressure ( in mb ) Visibility ( mi km ) Precip ( " mm )
12:53 am 00:53 Mostly Cloudy 64 17.8 37 2.8 37 37 NNE 10 17 30.01 1016 10 16 0.00 0.00
1:53 am 01:53 Mostly Cloudy 62 16.7 36 2.2 38 38 NNE 10 17 30.01 1016 10 16 0.00 0.00
2:53 am 02:53 Mostly Cloudy 62 16.7 35 1.7 37 37 NNE 9 15 30.02 1017 10 16 0.00 0.00
3:53 am 03:53 Mostly Cloudy 61 16.1 34 1.1 36 36 NNE 10 17 30.03 1017 10 16 0.00 0.00
4:53 am 04:53 Mostly Cloudy 60 15.6 31 -0.6 33 33 NE 12 19 30.04 1017 10 16 0.00 0.00
5:53 am 05:53 Partly Cloudy 60 15.6 30 -1.1 32 32 NE 8 13 30.06 1018 10 16 0.00 0.00
6:53 am 06:53 Mostly Cloudy 59 15 31 -0.6 35 35 NE 9 15 30.07 1018 10 16 0.00 0.00
7:53 am 07:53 Partly Cloudy 58 14.4 33 0.6 39 39 NE 7 11 30.10 1019 10 16 0.00 0.00
8:53 am 08:53 Mostly Sunny 60 15.6 34 1.1 38 38 NE 7 11 30.12 1020 10 16 0.00 0.00
9:53 am 09:53 Mostly Sunny 64 17.8 34 1.1 33 33 E 9 15 30.12 1020 10 16 0.00 0.00
10:53 am 10:53 Mostly Sunny 66 18.9 34 1.1 30 30 E 12 19 30.14 1021 10 16 0.00 0.00
11:53 am 11:53 Mostly Sunny 68 20 36 2.2 31 31 E 10 17 30.13 1020 10 16 0.00 0.00
12:53 pm 12:53 Mostly Sunny 69 20.6 36 2.2 30 30 SE 10 17 30.11 1020 10 16 0.00 0.00
1:53 pm 13:53 Mostly Sunny 71 21.7 38 3.3 30 30 VRB 7 11 30.07 1018 10 16 0.00 0.00
2:53 pm 14:53 Mostly Sunny 72 22.2 39 3.9 30 30 Calm 30.04 1017 10 16 0.00 0.00
3:53 pm 15:53 Mostly Sunny 73 22.8 40 4.4 30 30 E 5 7 30.01 1016 10 16 0.00 0.00
4:53 pm 16:53 Mostly Sunny 73 22.8 40 4.4 30 30 VRB 3 6 29.99 1016 10 16 0.00 0.00
5:53 pm 17:53 Mostly Sunny 74 23.3 42 5.6 32 32 ESE 8 13 29.97 1015 10 16 0.00 0.00
6:53 pm 18:53 Mostly Sunny 72 22.2 42 5.6 34 34 E 7 11 29.96 1015 10 16 0.00 0.00
7:53 pm 19:53 Mostly Sunny 69 20.6 42 5.6 38 38 E 6 9 29.95 1014 10 16 0.00 0.00
8:53 pm 20:53 Mostly Clear 67 19.4 44 6.7 44 44 E 5 7 29.96 1015 10 16 0.00 0.00
9:53 pm 21:53 Mostly Cloudy 66 18.9 45 7.2 47 47 ESE 7 11 29.97 1015 10 16 0.00 0.00
10:53 pm 22:53 Mostly Cloudy 66 18.9 45 7.2 47 47 SE 8 13 29.97 1015 10 16 0.00 0.00
11:53 pm 23:53 Mostly Cloudy 64 17.8 46 7.8 52 52 SSE 9 15 29.97 1015 10 16 0.00 0.00

Powered by Vaisala Xweather